• In Russia
  • List of Countries
  • For 7 days
  • Water Temperature
  • Satellite Maps
  • Weather Map
  • Weather Widgets
  • user-avatar
    Login

    Hourly Weather Ali Bayramli

    Today, 26 April, Thursday

    Time Temperature Precipitation Wind Pressure Humidity
    00:00 +13°C° 0 mm 1 mps 762 mmHg 86%
    01:00 +13°C° 0 mm 1 mps 762 mmHg 87%
    02:00 +13°C° 0 mm 1 mps 762 mmHg 87%
    03:00 +13°C° 0 mm 1 mps 762 mmHg 88%
    04:00 +13°C° 0 mm 1 mps 762 mmHg 86%
    05:00 +14°C° 0 mm 1 mps 762 mmHg 83%
    06:00 +14°C° 0 mm 1 mps 762 mmHg 81%
    07:00 +16°C° 0 mm 1 mps 762 mmHg 74%
    08:00 +19°C° 0 mm 1 mps 762 mmHg 67%
    09:00 +20°C° 0 mm 1 mps 762 mmHg 60%
    10:00 +22°C° 0 mm 1 mps 762 mmHg 54%
    11:00 +23°C° 0 mm 2 mps 762 mmHg 49%
    12:00 +25°C° 0 mm 2 mps 762 mmHg 44%
    13:00 +25°C° 0 mm 3 mps 761 mmHg 43%
    14:00 +25°C° 0 mm 4 mps 761 mmHg 43%
    15:00 +26°C° 0 mm 4 mps 761 mmHg 42%
    16:00 +23°C° 0 mm 4 mps 761 mmHg 45%
    17:00 +22°C° 0 mm 4 mps 761 mmHg 49%
    18:00 +21°C° 0 mm 4 mps 761 mmHg 52%
    19:00 +20°C° 0 mm 3 mps 761 mmHg 55%
    20:00 +18°C° 0 mm 3 mps 762 mmHg 58%
    21:00 +17°C° 0 mm 2 mps 762 mmHg 61%
    22:00 +17°C° 0 mm 2 mps 762 mmHg 62%
    23:00 +16°C° 0 mm 1 mps 762 mmHg 63%

    Tomorrow, 27 April, Friday

    Time Temperature Precipitation Wind Pressure Humidity
    00:00 +16°C° 0 mm 1 mps 762 mmHg 64%
    01:00 +16°C° 0 mm 1 mps 761 mmHg 64%
    02:00 +15°C° 0 mm 1 mps 761 mmHg 65%
    03:00 +15°C° 0 mm 1 mps 761 mmHg 65%
    04:00 +16°C° 0 mm 1 mps 761 mmHg 64%
    05:00 +16°C° 0 mm 1 mps 762 mmHg 63%
    06:00 +18°C° 0 mm 1 mps 762 mmHg 62%
    07:00 +19°C° 0 mm 1 mps 762 mmHg 56%
    08:00 +21°C° 0 mm 1 mps 762 mmHg 50%
    09:00 +23°C° 0 mm 1 mps 761 mmHg 43%
    10:00 +24°C° 0 mm 1 mps 761 mmHg 39%
    11:00 +25°C° 0 mm 1 mps 761 mmHg 35%
    12:00 +26°C° 0 mm 2 mps 760 mmHg 31%
    13:00 +27°C° 0 mm 3 mps 760 mmHg 30%
    14:00 +27°C° 0 mm 3 mps 760 mmHg 29%
    15:00 +28°C° 0 mm 4 mps 759 mmHg 28%
    16:00 +26°C° 0 mm 4 mps 759 mmHg 33%
    17:00 +25°C° 0 mm 3 mps 759 mmHg 37%
    18:00 +22°C° 0 mm 3 mps 759 mmHg 42%
    19:00 +21°C° 0 mm 2 mps 759 mmHg 43%
    20:00 +21°C° 0 mm 2 mps 758 mmHg 44%
    21:00 +21°C° 0 mm 1 mps 758 mmHg 45%
    22:00 +20°C° 0 mm 1 mps 758 mmHg 46%
    23:00 +19°C° 0 mm 2 mps 758 mmHg 47%

    Day after tomorrow, 28 April, Saturday

    Time Temperature Precipitation Wind Pressure Humidity
    00:00 +18°C° 0 mm 2 mps 758 mmHg 48%
    01:00 +18°C° 0 mm 2 mps 757 mmHg 50%
    02:00 +17°C° 0 mm 2 mps 757 mmHg 51%
    03:00 +17°C° 0 mm 2 mps 757 mmHg 53%
    04:00 +18°C° 0 mm 2 mps 757 mmHg 53%
    05:00 +18°C° 0 mm 2 mps 757 mmHg 53%
    06:00 +19°C° 0 mm 1 mps 757 mmHg 53%
    07:00 +20°C° 0 mm 2 mps 757 mmHg 48%
    08:00 +23°C° 0 mm 2 mps 757 mmHg 42%
    09:00 +25°C° 0 mm 3 mps 758 mmHg 36%
    10:00 +26°C° 0 mm 3 mps 758 mmHg 34%
    11:00 +27°C° 0 mm 2 mps 758 mmHg 31%
    12:00 +28°C° 0 mm 2 mps 758 mmHg 28%
    13:00 +29°C° 0 mm 4 mps 758 mmHg 29%
    14:00 +29°C° 0 mm 5 mps 757 mmHg 30%
    15:00 +30°C° 0 mm 6 mps 757 mmHg 31%
    16:00 +28°C° 0 mm 7 mps 757 mmHg 35%
    17:00 +27°C° 0 mm 7 mps 758 mmHg 39%
    18:00 +26°C° 0 mm 7 mps 758 mmHg 43%
    19:00 +24°C° 0 mm 6 mps 758 mmHg 45%
    20:00 +23°C° 0 mm 6 mps 759 mmHg 46%
    21:00 +22°C° 0 mm 6 mps 760 mmHg 48%
    22:00 +21°C° 0 mm 5 mps 760 mmHg 50%
    23:00 +21°C° 0 mm 4 mps 760 mmHg 52%

    29 April, Sunday

    Time Temperature Precipitation Wind Pressure Humidity
    00:00 +20°C° 0 mm 3 mps 760 mmHg 53%
    01:00 +20°C° 0 mm 3 mps 760 mmHg 54%
    02:00 +20°C° 0 mm 2 mps 760 mmHg 55%
    03:00 +19°C° 0 mm 2 mps 760 mmHg 56%
    04:00 +20°C° 0 mm 2 mps 760 mmHg 56%
    05:00 +20°C° 0 mm 2 mps 761 mmHg 57%
    06:00 +21°C° 0 mm 1 mps 761 mmHg 58%
    07:00 +21°C° 0 mm 2 mps 761 mmHg 53%
    08:00 +24°C° 0 mm 2 mps 761 mmHg 48%
    09:00 +25°C° 0 mm 3 mps 761 mmHg 42%
    10:00 +26°C° 0 mm 3 mps 761 mmHg 40%
    11:00 +27°C° 0 mm 4 mps 761 mmHg 38%
    12:00 +28°C° 0 mm 4 mps 761 mmHg 36%
    13:00 +28°C° 0 mm 5 mps 761 mmHg 37%
    14:00 +28°C° 0 mm 6 mps 761 mmHg 38%
    15:00 +27°C° 0 mm 7 mps 761 mmHg 39%
    16:00 +26°C° 0 mm 7 mps 761 mmHg 42%
    17:00 +24°C° 0 mm 8 mps 761 mmHg 45%
    18:00 +23°C° 0 mm 8 mps 761 mmHg 47%
    19:00 +22°C° 0 mm 8 mps 762 mmHg 48%
    20:00 +21°C° 0 mm 8 mps 762 mmHg 48%
    21:00 +20°C° 0 mm 7 mps 762 mmHg 49%
    22:00 +19°C° 0.2 mm 6 mps 762 mmHg 49%
    23:00 +19°C° 0.2 mm 6 mps 762 mmHg 50%

    30 April, Monday

    Time Temperature Precipitation Wind Pressure Humidity
    00:00 +17°C° 0.2 mm 5 mps 762 mmHg 50%
    01:00 +18°C° 0 mm 4 mps 762 mmHg 50%
    02:00 +18°C° 0 mm 4 mps 762 mmHg 50%
    03:00 +17°C° 0 mm 4 mps 762 mmHg 49%
    04:00 +17°C° 0 mm 3 mps 762 mmHg 48%
    05:00 +17°C° 0 mm 3 mps 762 mmHg 48%
    06:00 +17°C° 0 mm 3 mps 763 mmHg 47%
    07:00 +18°C° 0 mm 3 mps 763 mmHg 42%
    08:00 +20°C° 0 mm 3 mps 763 mmHg 38%
    09:00 +21°C° 0 mm 3 mps 763 mmHg 33%
    10:00 +22°C° 0 mm 3 mps 762 mmHg 31%
    11:00 +24°C° 0 mm 3 mps 762 mmHg 29%
    12:00 +25°C° 0 mm 3 mps 762 mmHg 28%
    13:00 +26°C° 0 mm 3 mps 762 mmHg 27%
    14:00 +26°C° 0 mm 4 mps 761 mmHg 27%
    15:00 +26°C° 0 mm 5 mps 761 mmHg 27%
    16:00 +25°C° 0 mm 5 mps 761 mmHg 30%
    17:00 +23°C° 0 mm 5 mps 761 mmHg 33%
    18:00 +22°C° 0 mm 5 mps 761 mmHg 36%
    19:00 +21°C° 0 mm 4 mps 762 mmHg 38%
    20:00 +20°C° 0 mm 4 mps 762 mmHg 40%
    21:00 +18°C° 0 mm 3 mps 762 mmHg 42%
    22:00 +18°C° 0 mm 3 mps 762 mmHg 45%
    23:00 +17°C° 0 mm 2 mps 762 mmHg 47%

    1 May, Tuesday

    Time Temperature Precipitation Wind Pressure Humidity
    00:00 +18°C° 0 mm 1 mps 762 mmHg 49%
    01:00 +16°C° 0 mm 1 mps 761 mmHg 50%
    02:00 +16°C° 0 mm 1 mps 761 mmHg 52%
    03:00 +16°C° 0 mm 1 mps 761 mmHg 53%
    04:00 +16°C° 0 mm 1 mps 761 mmHg 52%
    05:00 +18°C° 0 mm 1 mps 762 mmHg 52%
    06:00 +18°C° 0 mm 1 mps 762 mmHg 51%
    07:00 +20°C° 0 mm 1 mps 762 mmHg 46%
    08:00 +22°C° 0 mm 1 mps 762 mmHg 41%
    09:00 +23°C° 0 mm 1 mps 762 mmHg 37%
    10:00 +24°C° 0 mm 1 mps 762 mmHg 35%
    11:00 +25°C° 0 mm 1 mps 762 mmHg 33%
    12:00 +27°C° 0 mm 1 mps 761 mmHg 31%
    13:00 +27°C° 0 mm 2 mps 761 mmHg 31%
    14:00 +27°C° 0 mm 3 mps 761 mmHg 32%
    15:00 +27°C° 0 mm 4 mps 761 mmHg 33%
    16:00 +26°C° 0 mm 4 mps 761 mmHg 39%
    17:00 +23°C° 0 mm 4 mps 761 mmHg 44%
    18:00 +21°C° 0 mm 4 mps 761 mmHg 50%
    19:00 +20°C° 0 mm 4 mps 762 mmHg 53%
    20:00 +19°C° 0 mm 3 mps 762 mmHg 56%
    21:00 +18°C° 0 mm 2 mps 763 mmHg 59%
    22:00 +18°C° 0 mm 2 mps 762 mmHg 60%
    23:00 +17°C° 0 mm 2 mps 762 mmHg 61%
    Show more